• In Netherlands
  • List of Countries
  • For 7 days
  • Water Temperature
  • Satellite Maps
  • Weather Map
  • Weather Widgets
  • user-avatar
    Login

    Hourly Weather Salzburg

    Today, 21 February, Tuesday

    Time Temperature Precipitation Wind Pressure Humidity
    00:00 -5°C° 0.3 mm 2 mps 624 mmHg 88%
    01:00 -4°C° 0 mm 2 mps 624 mmHg 88%
    02:00 -4°C° 0.7 mm 2 mps 624 mmHg 91%
    03:00 -3°C° 0.7 mm 2 mps 624 mmHg 93%
    04:00 -3°C° 0.7 mm 2 mps 624 mmHg 95%
    05:00 -2°C° 0.7 mm 2 mps 624 mmHg 96%
    06:00 -2°C° 0.7 mm 2 mps 624 mmHg 96%
    07:00 -2°C° 0 mm 2 mps 623 mmHg 97%
    08:00 -2°C° 0.6 mm 2 mps 623 mmHg 97%
    09:00 -1°C° 0.6 mm 3 mps 623 mmHg 97%
    10:00 -1°C° 0.6 mm 3 mps 623 mmHg 97%
    11:00 -1°C° 1.3 mm 2 mps 623 mmHg 98%
    12:00 -1°C° 1.3 mm 2 mps 623 mmHg 98%
    13:00 -1°C° 0 mm 2 mps 623 mmHg 98%
    14:00 -1°C° 1.8 mm 2 mps 623 mmHg 98%
    15:00 -1°C° 1.8 mm 2 mps 623 mmHg 98%
    16:00 -1°C° 1.8 mm 2 mps 623 mmHg 98%
    17:00 -1°C° 1.3 mm 2 mps 623 mmHg 98%
    18:00 -1°C° 1.3 mm 2 mps 624 mmHg 98%
    19:00 -1°C° 1.3 mm 2 mps 624 mmHg 98%
    20:00 -1°C° 1 mm 2 mps 624 mmHg 98%
    21:00 -1°C° 1 mm 2 mps 624 mmHg 97%
    22:00 -1°C° 1 mm 2 mps 624 mmHg 97%
    23:00 -2°C° 0.8 mm 2 mps 624 mmHg 97%

    Tomorrow, 22 February, Wednesday

    Time Temperature Precipitation Wind Pressure Humidity
    00:00 -2°C° 0.8 mm 2 mps 624 mmHg 97%
    01:00 -2°C° 0.8 mm 2 mps 624 mmHg 97%
    02:00 -2°C° 0.7 mm 2 mps 624 mmHg 97%
    03:00 -2°C° 0.7 mm 2 mps 624 mmHg 97%
    04:00 -2°C° 0.7 mm 2 mps 623 mmHg 97%
    05:00 -2°C° 0.3 mm 2 mps 623 mmHg 96%
    06:00 -2°C° 0.3 mm 2 mps 623 mmHg 95%
    07:00 -3°C° 0.3 mm 2 mps 622 mmHg 95%
    08:00 -2°C° 0.1 mm 2 mps 623 mmHg 95%
    09:00 -1°C° 0.1 mm 2 mps 623 mmHg 95%
    10:00 +1°C° 0.1 mm 2 mps 623 mmHg 96%
    11:00 +1°C° 0 mm 2 mps 623 mmHg 95%
    12:00 +2°C° 0 mm 2 mps 623 mmHg 95%
    13:00 +2°C° 0 mm 2 mps 623 mmHg 95%
    14:00 +2°C° 0 mm 2 mps 623 mmHg 95%
    15:00 +2°C° 0 mm 2 mps 622 mmHg 95%
    16:00 +1°C° 0 mm 2 mps 622 mmHg 95%
    17:00 +1°C° 0 mm 2 mps 622 mmHg 95%
    18:00 -1°C° 0 mm 2 mps 622 mmHg 95%
    19:00 -2°C° 0 mm 2 mps 622 mmHg 95%
    20:00 -2°C° 0 mm 2 mps 622 mmHg 94%
    21:00 -3°C° 0 mm 2 mps 622 mmHg 93%
    22:00 -3°C° 0 mm 2 mps 621 mmHg 92%
    23:00 -4°C° 0 mm 2 mps 621 mmHg 91%

    Day after tomorrow, 23 February, Thursday

    Time Temperature Precipitation Wind Pressure Humidity
    00:00 -5°C° 0 mm 2 mps 621 mmHg 90%
    01:00 -5°C° 0 mm 2 mps 621 mmHg 89%
    02:00 -5°C° 0 mm 2 mps 621 mmHg 88%
    03:00 -5°C° 0 mm 2 mps 620 mmHg 87%
    04:00 -5°C° 0 mm 2 mps 620 mmHg 86%
    05:00 -5°C° 0 mm 2 mps 620 mmHg 85%
    06:00 -5°C° 0 mm 2 mps 620 mmHg 84%
    07:00 -5°C° 0 mm 2 mps 620 mmHg 83%
    08:00 -4°C° 0 mm 2 mps 620 mmHg 84%
    09:00 -2°C° 0 mm 2 mps 621 mmHg 85%
    10:00 +1°C° 0 mm 2 mps 622 mmHg 86%
    11:00 +2°C° 0 mm 2 mps 621 mmHg 86%
    12:00 +2°C° 0 mm 2 mps 621 mmHg 85%
    13:00 +3°C° 0 mm 2 mps 620 mmHg 85%
    14:00 +3°C° 0 mm 2 mps 620 mmHg 87%
    15:00 +2°C° 0 mm 2 mps 619 mmHg 89%
    16:00 +2°C° 0 mm 2 mps 619 mmHg 91%
    17:00 0°C° 0 mm 3 mps 618 mmHg 91%
    18:00 -1°C° 0 mm 3 mps 618 mmHg 92%
    19:00 -2°C° 0 mm 3 mps 617 mmHg 93%
    20:00 -4°C° 0 mm 3 mps 617 mmHg 92%
    21:00 -4°C° 0 mm 3 mps 617 mmHg 92%
    22:00 -5°C° 0 mm 3 mps 617 mmHg 91%
    23:00 -5°C° 0 mm 3 mps 617 mmHg 91%

    24 February, Friday

    Time Temperature Precipitation Wind Pressure Humidity
    00:00 -4°C° 0 mm 3 mps 617 mmHg 91%
    01:00 -4°C° 0 mm 3 mps 616 mmHg 91%
    02:00 -5°C° 0.4 mm 3 mps 617 mmHg 92%
    03:00 -4°C° 0.4 mm 2 mps 617 mmHg 93%
    04:00 -4°C° 0.4 mm 2 mps 617 mmHg 94%
    05:00 -4°C° 0.6 mm 2 mps 617 mmHg 94%
    06:00 -5°C° 0.6 mm 3 mps 618 mmHg 95%
    07:00 -5°C° 0.6 mm 3 mps 618 mmHg 96%
    08:00 -5°C° 0.4 mm 3 mps 619 mmHg 95%
    09:00 -5°C° 0.4 mm 3 mps 619 mmHg 94%
    10:00 -5°C° 0.4 mm 3 mps 620 mmHg 93%
    11:00 -5°C° 0.3 mm 3 mps 620 mmHg 92%
    12:00 -5°C° 0.3 mm 3 mps 620 mmHg 91%
    13:00 -5°C° 0.3 mm 3 mps 620 mmHg 90%
    14:00 -5°C° 0.3 mm 3 mps 620 mmHg 90%
    15:00 -5°C° 0.3 mm 3 mps 620 mmHg 91%
    16:00 -4°C° 0.3 mm 2 mps 620 mmHg 91%
    17:00 -5°C° 0.3 mm 2 mps 621 mmHg 93%
    18:00 -5°C° 0.3 mm 2 mps 621 mmHg 94%
    19:00 -6°C° 0.3 mm 2 mps 622 mmHg 96%
    20:00 -6°C° 0.4 mm 2 mps 622 mmHg 96%
    21:00 -7°C° 0.4 mm 2 mps 623 mmHg 96%
    22:00 -7°C° 0.4 mm 2 mps 624 mmHg 96%
    23:00 -7°C° 0.4 mm 2 mps 624 mmHg 96%

    25 February, Saturday

    Time Temperature Precipitation Wind Pressure Humidity
    00:00 -7°C° 0.4 mm 2 mps 624 mmHg 96%
    01:00 -7°C° 0.4 mm 2 mps 624 mmHg 96%
    02:00 -8°C° 0.1 mm 2 mps 624 mmHg 96%
    03:00 -8°C° 0.1 mm 2 mps 624 mmHg 96%
    04:00 -9°C° 0.1 mm 2 mps 624 mmHg 96%
    05:00 -9°C° 0 mm 2 mps 624 mmHg 95%
    06:00 -9°C° 0 mm 2 mps 625 mmHg 95%
    07:00 -10°C° 0 mm 2 mps 625 mmHg 94%
    08:00 -7°C° 0 mm 1 mps 625 mmHg 91%
    09:00 -4°C° 0 mm 1 mps 626 mmHg 89%
    10:00 -2°C° 0 mm 1 mps 627 mmHg 86%
    11:00 -1°C° 0 mm 1 mps 627 mmHg 86%
    12:00 0°C° 0 mm 1 mps 627 mmHg 85%
    13:00 +1°C° 0 mm 1 mps 627 mmHg 85%
    14:00 +2°C° 0 mm 1 mps 627 mmHg 87%
    15:00 +2°C° 0 mm 1 mps 626 mmHg 89%
    16:00 +2°C° 0 mm 1 mps 626 mmHg 92%
    17:00 0°C° 0 mm 1 mps 626 mmHg 91%
    18:00 -2°C° 0 mm 1 mps 625 mmHg 91%
    19:00 -5°C° 0 mm 2 mps 624 mmHg 90%
    20:00 -5°C° 0 mm 2 mps 625 mmHg 89%
    21:00 -5°C° 0 mm 2 mps 625 mmHg 87%
    22:00 -5°C° 0 mm 2 mps 625 mmHg 85%
    23:00 -5°C° 0 mm 2 mps 625 mmHg 84%

    26 February, Sunday

    Time Temperature Precipitation Wind Pressure Humidity
    00:00 -5°C° 0 mm 2 mps 625 mmHg 83%
    01:00 -6°C° 0 mm 2 mps 624 mmHg 81%
    02:00 -5°C° 0 mm 2 mps 624 mmHg 80%
    03:00 -5°C° 0 mm 2 mps 624 mmHg 78%
    04:00 -5°C° 0 mm 2 mps 624 mmHg 76%
    05:00 -3°C° 0 mm 1 mps 624 mmHg 76%
    06:00 -4°C° 0 mm 1 mps 624 mmHg 77%
    07:00 -4°C° 0 mm 1 mps 624 mmHg 77%
    08:00 -2°C° 0 mm 1 mps 625 mmHg 80%
    09:00 +1°C° 0 mm 1 mps 626 mmHg 83%
    10:00 +3°C° 0 mm 1 mps 627 mmHg 86%
    11:00 +3°C° 0.1 mm 1 mps 627 mmHg 85%
    12:00 +4°C° 0.1 mm 1 mps 627 mmHg 83%
    13:00 +4°C° 0.1 mm 1 mps 627 mmHg 81%
    14:00 +3°C° 0 mm 0 mps 626 mmHg 84%
    15:00 +3°C° 0 mm 0 mps 626 mmHg 87%
    16:00 +3°C° 0 mm 0 mps 626 mmHg 89%
    17:00 0°C° 0 mm 0 mps 625 mmHg 90%
    18:00 -2°C° 0 mm 1 mps 623 mmHg 90%
    19:00 -4°C° 0 mm 1 mps 622 mmHg 91%
    20:00 -4°C° 0 mm 1 mps 623 mmHg 90%
    21:00 -4°C° 0 mm 1 mps 623 mmHg 89%
    22:00 -4°C° 0 mm 1 mps 623 mmHg 87%
    23:00 -4°C° 0 mm 1 mps 623 mmHg 86%
    Show more